This is the latest recevied weather packets stored in our database for station/object WV8BRW. If no packets are shown the sender has not sent any weather packets the latest 10 day(s).
| Time | Temp. | Humidity | Pressure | Rain* | Wind** | Luminosity | Snow |
|---|---|---|---|---|---|---|---|
| 1777636570 | 3.33° C | 99% | 1012.8 hPa | 0 mm | - | 41 W/m² | - |
| 1777636266 | 2.78° C | 99% | 1013.1 hPa | 0 mm | - | 38 W/m² | - |
| 1777635966 | 3.33° C | 99% | 1013.3 hPa | 0 mm | - | 36 W/m² | - |
| 1777635662 | 2.22° C | 99% | 1013.1 hPa | 0 mm | - | 33 W/m² | - |
| 1777635359 | 2.22° C | 99% | 1013.3 hPa | 0 mm | - | 33 W/m² | - |
| 1777635056 | 1.67° C | 99% | 1013.1 hPa | 0 mm | - | 34 W/m² | - |
| 1777634752 | 1.67° C | 99% | 1013.1 hPa | 0 mm | - | 31 W/m² | - |
| 1777634449 | 1.67° C | 99% | 1013.3 hPa | 0 mm | - | 26 W/m² | - |
| 1777634146 | 1.67° C | 99% | 1013.5 hPa | 0 mm | - | 24 W/m² | - |
| 1777633843 | 1.67° C | 99% | 1013.4 hPa | 0 mm | - | 21 W/m² | - |
| 1777633540 | 1.67° C | 99% | 1013.2 hPa | 0 mm | - | 18 W/m² | - |
| 1777633238 | 1.67° C | 99% | 1013.1 hPa | 0 mm | - | 15 W/m² | - |
| 1777632935 | 1.67° C | 99% | 1013.3 hPa | 0 mm | - | 11 W/m² | - |
| 1777632631 | 1.67° C | 99% | 1013.3 hPa | 0 mm | - | 9 W/m² | - |
| 1777632328 | 1.67° C | 99% | 1013.1 hPa | 0 mm | - | 6 W/m² | - |
| 1777632025 | 1.67° C | 99% | 1013.1 hPa | 0 mm | - | 3 W/m² | - |
| 1777631723 | 1.67° C | 99% | 1013.2 hPa | 0 mm | - | 3 W/m² | - |
| 1777631421 | 1.67° C | 99% | 1013.3 hPa | 0 mm | - | 0 W/m² | - |
| 1777631117 | 1.11° C | 99% | 1013.2 hPa | 0 mm | - | 0 W/m² | - |
| 1777630815 | 1.11° C | 99% | 1013.2 hPa | 0 mm | - | 0 W/m² | - |
| 1777630510 | 1.11° C | 99% | 1013.3 hPa | 0 mm | - | 0 W/m² | - |
| 1777630207 | 1.11° C | 99% | 1013.5 hPa | 0 mm | - | 0 W/m² | - |
| 1777629905 | 1.67° C | 99% | 1013.3 hPa | 0 mm | - | 0 W/m² | - |
| 1777629603 | 1.67° C | 99% | 1013.4 hPa | 0 mm | - | 0 W/m² | - |
| 1777629299 | 1.67° C | 99% | 1013.7 hPa | 0 mm | - | 0 W/m² | - |
* Rain latest hour (hover to see other rain measurements)
** Current wind speed in m/s (hover to see current wind gust speed)